Regional Weather Roundup
Issued by NWS

Home | Current Version | Previous Version | Text Only | Print | Product List | Glossary Off
Versions: 1 2 3 4 5 6 7 8 9 10 11 12 13 14 15 16 17 18 19 20 21 22 23 24 25 26 27 28 29 30 31 32 33 34 35 36 37 38 39 40 41 42 43 44 45 46 47 48 49 50

000
ASUS43 KFSD 092102
RWRSD

WEATHER ROUNDUP FOR SOUTH DAKOTA
NATIONAL WEATHER SERVICE SIOUX FALLS SD
300 PM CST TUE FEB 09 2016

NOTE: "FAIR" INDICATES FEW OR NO CLOUDS BELOW 12,000 FEET WITH NO
SIGNIFICANT WEATHER AND/OR OBSTRUCTIONS TO VISIBILITY.


SDZ001>005-009-010-012>017-092200-
NORTHWEST AND NORTH CENTRAL SOUTH DAKOTA

CITY           SKY/WX    TMP DP  RH WIND       PRES   REMARKS
BUFFALO          N/A     48  29  47 NW22G30   30.06F
FAITH            N/A     42  23  46 NW15G21   30.11F
MOBRIDGE       CLOUDY    36  16  44 SW8       30.13F
$$

SDZ012>016-024>037-041>051-057-063-072>074-092200-
SOUTHWEST AND SOUTH CENTRAL SOUTH DAKOTA

CITY           SKY/WX    TMP DP  RH WIND       PRES   REMARKS
RAPID CTY ARPT CLOUDY    52  29  41 NW22G28   30.12F
PIERRE         PTSUNNY   34  13  41 SW13      30.18F WCI  25
CUSTER         CLOUDY    46  25  43 NW12G23   30.14F
ELLSWORTH AFB  CLOUDY    53  30  41 NW20      30.12F
PHILIP         CLOUDY    41  25  53 W6        30.15F
PINE RIDGE     CLOUDY    45  28  51 W7        30.16F
WINNER         MOCLDY    34  13  41 SW10      30.18F WCI  26
$$

SDZ004>011-016>023-039-040-092200-
NORTHEAST SOUTH DAKOTA

CITY           SKY/WX    TMP DP  RH WIND       PRES   REMARKS
ABERDEEN       CLOUDY    32  12  43 CALM      30.20F
WATERTOWN      CLOUDY    22  10  60 N15       30.18S WCI   9
BROOKINGS      CLOUDY    21  11  65 NW20      30.17S WCI   6
SISSETON         N/A     20  10  65 N10       30.22F WCI   9
$$

SDZ017-020-022-023-036>040-048>070-092200-
SOUTHEAST SOUTH DAKOTA

CITY           SKY/WX    TMP DP  RH WIND       PRES   REMARKS
SIOUX FALLS    PTSUNNY   22  10  60 NW18      30.21R WCI   7
HURON          CLOUDY    30  12  47 NW6       30.22F WCI  24
CHAMBERLAIN    MOSUNNY   31  13  46 SW6       30.20F WCI  25
MITCHELL       CLOUDY    28  12  51 N9        30.25S WCI  19
YANKTON        CLOUDY    27  10  50 NW15      30.24F WCI  15
$$

ABBREVIATIONS USED IN REMARKS
   TC - TEMPERATURE IN CELSIUS
  WCI - WIND CHILL INDEX
   HX - HEAT INDEX
  VSB - VISIBILITY





USA.gov is the U.S. government's official web portal to all federal, state and local government web resources and services.